contact:dominique.lefevre@mio.osupytheas.fr, maurice.libes@osupytheas.fr, didier.mallarino@osupytheas.fr
Project:EMSO http://www.emso-fr.org/EMSO-France
Depth: 2436.0 m
Title:EMSO Ligure Ouest : Data MII capteur CSTAR
DateTime,Latitude,Longitude,Instrument_Serial,Reference_Counts,Signal_Counts,Corrected_Signal_raw_counts,Calculated_Beam_c_inverse_meters,Internal_thermistor_counts
DateTime,Latitude,Longitude,Instrument_Serial,Reference_Counts,Signal_Counts,Corrected_Signal_raw_counts,Calculated_Beam_c_inverse_meters,Internal_thermistor_counts
2022-12-03T00:02:50,42.805,6.029,CST-1368DR,4469,5096,12125,01.012,551
2022-12-03T00:05:52,42.805,6.029,CST-1368DR,4469,5098,12130,01.010,551
2022-12-03T00:08:53,42.805,6.029,CST-1368DR,4469,5100,12134,01.009,551
2022-12-03T00:11:55,42.805,6.029,CST-1368DR,4469,5098,12131,01.010,551
2022-12-03T00:14:57,42.805,6.029,CST-1368DR,4469,5097,12127,01.011,551
2022-12-03T00:17:58,42.805,6.029,CST-1368DR,4469,5095,12123,01.013,551
2022-12-03T00:21:00,42.805,6.029,CST-1368DR,4469,5099,12132,01.010,551
2022-12-03T00:24:01,42.805,6.029,CST-1368DR,4469,5100,12135,01.009,551
2022-12-03T00:27:03,42.805,6.029,CST-1368DR,4469,5096,12126,01.012,551
2022-12-03T00:30:04,42.805,6.029,CST-1368DR,4469,5101,12138,01.008,551
2022-12-03T00:33:06,42.805,6.029,CST-1368DR,4469,5098,12130,01.010,551
2022-12-03T00:36:08,42.805,6.029,CST-1368DR,4469,5097,12128,01.011,551
2022-12-03T00:39:09,42.805,6.029,CST-1368DR,4469,5095,12124,01.012,551
2022-12-03T00:42:11,42.805,6.029,CST-1368DR,4469,5094,12122,01.013,551
2022-12-03T00:45:12,42.805,6.029,CST-1368DR,4469,5096,12126,01.012,551
2022-12-03T00:48:14,42.805,6.029,CST-1368DR,4469,5097,12127,01.011,551
2022-12-03T00:51:15,42.805,6.029,CST-1368DR,4469,5098,12131,01.010,551
2022-12-03T00:54:17,42.805,6.029,CST-1368DR,4469,5095,12123,01.013,551
2022-12-03T00:57:19,42.805,6.029,CST-1368DR,4469,5101,12138,01.008,551
2022-12-03T01:00:20,42.805,6.029,CST-1368DR,4469,5095,12122,01.013,551
2022-12-03T01:03:22,42.805,6.029,CST-1368DR,4469,5095,12123,01.013,551
2022-12-03T01:06:23,42.805,6.029,CST-1368DR,4469,5098,12131,01.010,551
2022-12-03T01:09:25,42.805,6.029,CST-1368DR,4469,5100,12135,01.009,551
2022-12-03T01:12:27,42.805,6.029,CST-1368DR,4469,5095,12122,01.013,551
2022-12-03T01:15:28,42.805,6.029,CST-1368DR,4469,5094,12122,01.013,551
2022-12-03T01:18:30,42.805,6.029,CST-1368DR,4469,5093,12119,01.014,551
2022-12-03T01:21:31,42.805,6.029,CST-1368DR,4469,5094,12120,01.014,551
2022-12-03T01:24:33,42.805,6.029,CST-1368DR,4469,5101,12137,01.008,551
2022-12-03T01:27:34,42.805,6.029,CST-1368DR,4469,5101,12138,01.008,551
2022-12-03T01:30:36,42.805,6.029,CST-1368DR,4469,5096,12126,01.012,551
2022-12-03T01:33:38,42.805,6.029,CST-1368DR,4469,5094,12122,01.013,551
2022-12-03T01:36:39,42.805,6.029,CST-1368DR,4469,5095,12123,01.013,551
2022-12-03T01:39:41,42.805,6.029,CST-1368DR,4469,5098,12131,01.010,551
2022-12-03T01:42:42,42.805,6.029,CST-1368DR,4469,5099,12132,01.010,551
2022-12-03T01:45:44,42.805,6.029,CST-1368DR,4469,5094,12120,01.014,551
2022-12-03T01:48:45,42.805,6.029,CST-1368DR,4469,5095,12123,01.013,551
2022-12-03T01:51:47,42.805,6.029,CST-1368DR,4469,5094,12122,01.013,551
2022-12-03T01:54:49,42.805,6.029,CST-1368DR,4469,5095,12123,01.013,551
2022-12-03T01:57:50,42.805,6.029,CST-1368DR,4469,5095,12123,01.013,551
2022-12-03T02:00:52,42.805,6.029,CST-1368DR,4469,5096,12126,01.012,551
2022-12-03T02:03:53,42.805,6.029,CST-1368DR,4469,5099,12132,01.010,551
2022-12-03T02:06:55,42.805,6.029,CST-1368DR,4469,5096,12126,01.012,551
2022-12-03T02:09:57,42.805,6.029,CST-1368DR,4469,5098,12129,01.011,551
2022-12-03T02:12:58,42.805,6.029,CST-1368DR,4469,5096,12126,01.012,551
2022-12-03T02:16:00,42.805,6.029,CST-1368DR,4469,5095,12123,01.013,551
2022-12-03T02:19:01,42.805,6.029,CST-1368DR,4469,5097,12129,01.011,551
2022-12-03T02:22:03,42.805,6.029,CST-1368DR,4469,5110,12159,01.001,551
2022-12-03T02:25:04,42.805,6.029,CST-1368DR,4469,5097,12128,01.011,551
2022-12-03T02:28:06,42.805,6.029,CST-1368DR,4469,5094,12121,01.013,551
2022-12-03T02:31:08,42.805,6.029,CST-1368DR,4469,5097,12129,01.011,551
2022-12-03T02:34:09,42.805,6.029,CST-1368DR,4469,5094,12121,01.013,551
2022-12-03T02:37:11,42.805,6.029,CST-1368DR,4469,5093,12119,01.014,551
2022-12-03T02:40:12,42.805,6.029,CST-1368DR,4469,5092,12116,01.015,551
2022-12-03T02:43:14,42.805,6.029,CST-1368DR,4469,5094,12120,01.014,551
2022-12-03T02:46:15,42.805,6.029,CST-1368DR,4469,5094,12120,01.014,551
2022-12-03T02:49:17,42.805,6.029,CST-1368DR,4469,5094,12121,01.013,551
2022-12-03T02:52:19,42.805,6.029,CST-1368DR,4469,5095,12123,01.013,551
2022-12-03T02:55:20,42.805,6.029,CST-1368DR,4469,5098,12129,01.011,551
2022-12-03T02:58:22,42.805,6.029,CST-1368DR,4469,5097,12129,01.011,551
2022-12-03T03:01:23,42.805,6.029,CST-1368DR,4469,5108,12155,01.002,551
2022-12-03T03:04:25,42.805,6.029,CST-1368DR,4469,5098,12131,01.010,551
2022-12-03T03:07:26,42.805,6.029,CST-1368DR,4469,5097,12127,01.011,551
2022-12-03T03:10:28,42.805,6.029,CST-1368DR,4469,5092,12116,01.015,551
2022-12-03T03:13:30,42.805,6.029,CST-1368DR,4469,5094,12122,01.013,551
2022-12-03T03:16:31,42.805,6.029,CST-1368DR,4469,5098,12130,01.010,551
2022-12-03T03:19:33,42.805,6.029,CST-1368DR,4469,5094,12121,01.013,551
2022-12-03T03:22:34,42.805,6.029,CST-1368DR,4469,5093,12117,01.015,551
2022-12-03T03:25:36,42.805,6.029,CST-1368DR,4469,5094,12121,01.013,551
2022-12-03T03:28:38,42.805,6.029,CST-1368DR,4469,5098,12130,01.010,551
2022-12-03T03:31:39,42.805,6.029,CST-1368DR,4469,5093,12117,01.015,551
2022-12-03T03:34:41,42.805,6.029,CST-1368DR,4469,5095,12123,01.013,551
2022-12-03T03:37:42,42.805,6.029,CST-1368DR,4469,5096,12126,01.012,551
2022-12-03T03:40:44,42.805,6.029,CST-1368DR,4469,5092,12116,01.015,551
2022-12-03T03:43:45,42.805,6.029,CST-1368DR,4469,5097,12128,01.011,551
2022-12-03T03:46:47,42.805,6.029,CST-1368DR,4469,5093,12118,01.014,551
2022-12-03T03:49:49,42.805,6.029,CST-1368DR,4469,5095,12123,01.013,551
2022-12-03T03:52:50,42.805,6.029,CST-1368DR,4469,5095,12122,01.013,551
2022-12-03T03:55:52,42.805,6.029,CST-1368DR,4469,5099,12134,01.009,551
2022-12-03T03:58:53,42.805,6.029,CST-1368DR,4469,5094,12121,01.013,551
2022-12-03T04:01:55,42.805,6.029,CST-1368DR,4469,5093,12119,01.014,551
2022-12-03T04:04:56,42.805,6.029,CST-1368DR,4469,5093,12119,01.014,551
2022-12-03T04:07:58,42.805,6.029,CST-1368DR,4469,5108,12154,01.003,551
2022-12-03T04:11:00,42.805,6.029,CST-1368DR,4469,5095,12123,01.013,551
2022-12-03T04:14:01,42.805,6.029,CST-1368DR,4469,5093,12118,01.014,551
2022-12-03T04:17:03,42.805,6.029,CST-1368DR,4469,5096,12125,01.012,551
2022-12-03T04:20:04,42.805,6.029,CST-1368DR,4469,5093,12119,01.014,551
2022-12-03T04:23:06,42.805,6.029,CST-1368DR,4469,5094,12120,01.014,551
2022-12-03T04:26:08,42.805,6.029,CST-1368DR,4469,5095,12122,01.013,551
2022-12-03T04:29:09,42.805,6.029,CST-1368DR,4469,5095,12124,01.012,551
2022-12-03T04:32:11,42.805,6.029,CST-1368DR,4469,5096,12125,01.012,551
2022-12-03T04:35:12,42.805,6.029,CST-1368DR,4469,5094,12122,01.013,551
2022-12-03T04:38:14,42.805,6.029,CST-1368DR,4469,5098,12129,01.011,551
2022-12-03T04:41:15,42.805,6.029,CST-1368DR,4469,5095,12122,01.013,551
2022-12-03T04:44:17,42.805,6.029,CST-1368DR,4469,5101,12138,01.008,551
2022-12-03T04:47:19,42.805,6.029,CST-1368DR,4469,5099,12132,01.010,551
2022-12-03T04:50:20,42.805,6.029,CST-1368DR,4469,5099,12132,01.010,551
2022-12-03T04:53:22,42.805,6.029,CST-1368DR,4469,5097,12127,01.011,551
2022-12-03T04:56:23,42.805,6.029,CST-1368DR,4469,5096,12126,01.012,551
2022-12-03T04:59:25,42.805,6.029,CST-1368DR,4469,5097,12128,01.011,551
2022-12-03T05:02:26,42.805,6.029,CST-1368DR,4469,5094,12120,01.014,551
2022-12-03T05:05:28,42.805,6.029,CST-1368DR,4469,5093,12119,01.014,551
2022-12-03T05:08:30,42.805,6.029,CST-1368DR,4469,5097,12129,01.011,551
2022-12-03T05:11:31,42.805,6.029,CST-1368DR,4469,5096,12126,01.012,551
2022-12-03T05:14:33,42.805,6.029,CST-1368DR,4469,5094,12120,01.014,551
2022-12-03T05:17:34,42.805,6.029,CST-1368DR,4469,5094,12121,01.013,551
2022-12-03T05:20:36,42.805,6.029,CST-1368DR,4469,5099,12134,01.009,551
2022-12-03T05:23:37,42.805,6.029,CST-1368DR,4469,5097,12129,01.011,551
2022-12-03T05:26:39,42.805,6.029,CST-1368DR,4469,5095,12123,01.013,551
2022-12-03T05:29:41,42.805,6.029,CST-1368DR,4469,5095,12123,01.013,551
2022-12-03T05:32:42,42.805,6.029,CST-1368DR,4469,5101,12137,01.008,551
2022-12-03T05:35:44,42.805,6.029,CST-1368DR,4469,5095,12122,01.013,551
2022-12-03T05:38:45,42.805,6.029,CST-1368DR,4469,5097,12128,01.011,551
2022-12-03T05:41:47,42.805,6.029,CST-1368DR,4469,5098,12131,01.010,551
2022-12-03T05:44:49,42.805,6.029,CST-1368DR,4469,5095,12123,01.013,551
2022-12-03T05:47:50,42.805,6.029,CST-1368DR,4469,5094,12120,01.014,551
2022-12-03T05:50:52,42.805,6.029,CST-1368DR,4469,5095,12124,01.012,551
2022-12-03T05:53:53,42.805,6.029,CST-1368DR,4469,5094,12120,01.014,551
2022-12-03T05:56:55,42.805,6.029,CST-1368DR,4469,5098,12131,01.010,551
2022-12-03T05:59:56,42.805,6.029,CST-1368DR,4469,5095,12124,01.012,551
2022-12-03T06:02:58,42.805,6.029,CST-1368DR,4469,5097,12129,01.011,551
2022-12-03T06:06:00,42.805,6.029,CST-1368DR,4469,5098,12131,01.010,551
2022-12-03T06:09:01,42.805,6.029,CST-1368DR,4469,5097,12128,01.011,551
2022-12-03T06:12:03,42.805,6.029,CST-1368DR,4469,5100,12136,01.008,551
2022-12-03T06:15:04,42.805,6.029,CST-1368DR,4469,5099,12132,01.010,551
2022-12-03T06:18:06,42.805,6.029,CST-1368DR,4469,5099,12132,01.010,551
2022-12-03T06:21:07,42.805,6.029,CST-1368DR,4469,5097,12128,01.011,551
2022-12-03T06:24:09,42.805,6.029,CST-1368DR,4469,5096,12126,01.012,551
2022-12-03T06:27:11,42.805,6.029,CST-1368DR,4469,5097,12129,01.011,551
2022-12-03T06:30:12,42.805,6.029,CST-1368DR,4469,5098,12131,01.010,551
2022-12-03T06:33:14,42.805,6.029,CST-1368DR,4469,5099,12134,01.009,551
2022-12-03T06:36:15,42.805,6.029,CST-1368DR,4469,5098,12130,01.010,551
2022-12-03T06:39:17,42.805,6.029,CST-1368DR,4469,5107,12151,01.004,551
2022-12-03T06:42:18,42.805,6.029,CST-1368DR,4469,5103,12141,01.007,551
2022-12-03T06:45:20,42.805,6.029,CST-1368DR,4469,5107,12151,01.004,551
2022-12-03T06:48:22,42.805,6.029,CST-1368DR,4469,5107,12153,01.003,551
2022-12-03T06:51:23,42.805,6.029,CST-1368DR,4469,5108,12153,01.003,551
2022-12-03T06:54:25,42.805,6.029,CST-1368DR,4469,5100,12134,01.009,551
2022-12-03T06:57:26,42.805,6.029,CST-1368DR,4469,5099,12134,01.009,551
2022-12-03T07:00:28,42.805,6.029,CST-1368DR,4469,5097,12129,01.011,551
2022-12-03T07:03:30,42.805,6.029,CST-1368DR,4469,5097,12128,01.011,551
2022-12-03T07:06:31,42.805,6.029,CST-1368DR,4469,5100,12135,01.009,551
2022-12-03T07:09:33,42.805,6.029,CST-1368DR,4469,5109,12156,01.002,551
2022-12-03T07:12:34,42.805,6.029,CST-1368DR,4469,5096,12126,01.012,551
2022-12-03T07:15:36,42.805,6.029,CST-1368DR,4469,5101,12138,01.008,551
2022-12-03T07:18:37,42.805,6.029,CST-1368DR,4469,5101,12137,01.008,551
2022-12-03T07:21:39,42.805,6.029,CST-1368DR,4469,5098,12131,01.010,551
2022-12-03T07:24:41,42.805,6.029,CST-1368DR,4469,5098,12129,01.011,551
2022-12-03T07:27:42,42.805,6.029,CST-1368DR,4469,5098,12130,01.010,551
2022-12-03T07:30:44,42.805,6.029,CST-1368DR,4469,5098,12129,01.011,551
2022-12-03T07:33:45,42.805,6.029,CST-1368DR,4469,5096,12125,01.012,551
2022-12-03T07:36:47,42.805,6.029,CST-1368DR,4469,5099,12134,01.009,551
2022-12-03T07:39:48,42.805,6.029,CST-1368DR,4469,5097,12129,01.011,551
2022-12-03T07:42:50,42.805,6.029,CST-1368DR,4469,5095,12124,01.012,551
2022-12-03T07:45:52,42.805,6.029,CST-1368DR,4469,5098,12130,01.010,551
2022-12-03T07:48:53,42.805,6.029,CST-1368DR,4469,5097,12128,01.011,551
2022-12-03T07:51:55,42.805,6.029,CST-1368DR,4469,5098,12131,01.010,551
2022-12-03T07:54:56,42.805,6.029,CST-1368DR,4469,5093,12119,01.014,551
2022-12-03T07:57:58,42.805,6.029,CST-1368DR,4469,5099,12134,01.009,551
2022-12-03T08:00:59,42.805,6.029,CST-1368DR,4469,5096,12125,01.012,551
2022-12-03T08:04:01,42.805,6.029,CST-1368DR,4468,5091,12115,01.015,551
2022-12-03T08:07:03,42.805,6.029,CST-1368DR,4468,5094,12124,01.012,551
2022-12-03T08:10:04,42.805,6.029,CST-1368DR,4468,5094,12122,01.013,551
2022-12-03T08:13:06,42.805,6.029,CST-1368DR,4468,5092,12118,01.014,551
2022-12-03T08:16:07,42.805,6.029,CST-1368DR,4468,5091,12117,01.015,551
2022-12-03T08:19:09,42.805,6.029,CST-1368DR,4468,5093,12121,01.013,551
2022-12-03T08:22:11,42.805,6.029,CST-1368DR,4468,5092,12118,01.014,551
2022-12-03T08:25:12,42.805,6.029,CST-1368DR,4468,5095,12125,01.012,551
2022-12-03T08:28:14,42.805,6.029,CST-1368DR,4468,5104,12147,01.005,551
2022-12-03T08:31:15,42.805,6.029,CST-1368DR,4468,5104,12147,01.005,551
2022-12-03T08:34:17,42.805,6.029,CST-1368DR,4468,5103,12144,01.006,551
2022-12-03T08:37:18,42.805,6.029,CST-1368DR,4468,5094,12123,01.013,551
2022-12-03T08:40:20,42.805,6.029,CST-1368DR,4468,5095,12125,01.012,551
2022-12-03T08:43:22,42.805,6.029,CST-1368DR,4468,5096,12128,01.011,551
2022-12-03T08:46:23,42.805,6.029,CST-1368DR,4468,5091,12115,01.015,551
2022-12-03T08:49:25,42.805,6.029,CST-1368DR,4468,5091,12117,01.015,551
2022-12-03T08:52:26,42.805,6.029,CST-1368DR,4468,5092,12118,01.014,551
2022-12-03T08:55:28,42.805,6.029,CST-1368DR,4468,5091,12117,01.015,551
2022-12-03T08:58:29,42.805,6.029,CST-1368DR,4468,5093,12121,01.013,551
2022-12-03T09:01:31,42.805,6.029,CST-1368DR,4468,5096,12128,01.011,551
2022-12-03T09:04:33,42.805,6.029,CST-1368DR,4468,5091,12116,01.015,551
2022-12-03T09:07:34,42.805,6.029,CST-1368DR,4468,5091,12117,01.015,551
2022-12-03T09:10:36,42.805,6.029,CST-1368DR,4468,5093,12120,01.014,551
2022-12-03T09:13:37,42.805,6.029,CST-1368DR,4468,5092,12119,01.014,551
2022-12-03T09:16:39,42.805,6.029,CST-1368DR,4468,5088,12110,01.017,551
2022-12-03T09:19:40,42.805,6.029,CST-1368DR,4468,5090,12114,01.016,551
2022-12-03T09:22:42,42.805,6.029,CST-1368DR,4468,5090,12114,01.016,551
2022-12-03T09:25:44,42.805,6.029,CST-1368DR,4468,5091,12116,01.015,551
2022-12-03T09:28:45,42.805,6.029,CST-1368DR,4468,5087,12108,01.018,551
2022-12-03T09:31:47,42.805,6.029,CST-1368DR,4468,5091,12115,01.015,551
2022-12-03T09:34:48,42.805,6.029,CST-1368DR,4468,5094,12124,01.012,551
2022-12-03T09:37:50,42.805,6.029,CST-1368DR,4468,5090,12114,01.016,551
2022-12-03T09:40:52,42.805,6.029,CST-1368DR,4468,5093,12120,01.014,551
2022-12-03T09:43:53,42.805,6.029,CST-1368DR,4468,5103,12145,01.006,551
2022-12-03T09:46:55,42.805,6.029,CST-1368DR,4468,5091,12115,01.015,551
2022-12-03T09:49:56,42.805,6.029,CST-1368DR,4468,5090,12114,01.016,551
2022-12-03T09:52:58,42.805,6.029,CST-1368DR,4468,5092,12118,01.014,551
2022-12-03T09:55:59,42.805,6.029,CST-1368DR,4468,5090,12114,01.016,551
2022-12-03T09:59:01,42.805,6.029,CST-1368DR,4468,5090,12114,01.016,551
2022-12-03T10:02:03,42.805,6.029,CST-1368DR,4468,5090,12114,01.016,551
2022-12-03T10:05:04,42.805,6.029,CST-1368DR,4468,5096,12128,01.011,551
2022-12-03T10:08:06,42.805,6.029,CST-1368DR,4468,5094,12122,01.013,551
2022-12-03T10:11:07,42.805,6.029,CST-1368DR,4468,5090,12113,01.016,551
2022-12-03T10:14:09,42.805,6.029,CST-1368DR,4468,5092,12119,01.014,551
2022-12-03T10:17:10,42.805,6.029,CST-1368DR,4468,5092,12118,01.014,551
2022-12-03T10:20:12,42.805,6.029,CST-1368DR,4468,5088,12109,01.017,551
2022-12-03T10:23:14,42.805,6.029,CST-1368DR,4468,5090,12113,01.016,551
2022-12-03T10:26:15,42.805,6.029,CST-1368DR,4468,5089,12111,01.017,551
2022-12-03T10:29:17,42.805,6.029,CST-1368DR,4468,5090,12113,01.016,551
2022-12-03T10:32:18,42.805,6.029,CST-1368DR,4468,5090,12114,01.016,551
2022-12-03T10:35:20,42.805,6.029,CST-1368DR,4468,5090,12114,01.016,551
2022-12-03T10:38:21,42.805,6.029,CST-1368DR,4468,5088,12109,01.017,551
2022-12-03T10:41:23,42.805,6.029,CST-1368DR,4468,5089,12112,01.016,551
2022-12-03T10:44:25,42.805,6.029,CST-1368DR,4468,5089,12111,01.017,551
2022-12-03T10:47:26,42.805,6.029,CST-1368DR,4468,5088,12110,01.017,551
2022-12-03T10:50:28,42.805,6.029,CST-1368DR,4468,5090,12113,01.016,551
2022-12-03T10:53:29,42.805,6.029,CST-1368DR,4468,5097,12130,01.010,551
2022-12-03T10:56:31,42.805,6.029,CST-1368DR,4468,5088,12108,01.018,551
2022-12-03T10:59:33,42.805,6.029,CST-1368DR,4468,5087,12108,01.018,551
2022-12-03T11:02:34,42.805,6.029,CST-1368DR,4468,5088,12109,01.017,551
2022-12-03T11:05:36,42.805,6.029,CST-1368DR,4468,5088,12109,01.017,551
2022-12-03T11:08:37,42.805,6.029,CST-1368DR,4468,5087,12107,01.018,551
2022-12-03T11:11:39,42.805,6.029,CST-1368DR,4468,5087,12106,01.018,551
2022-12-03T11:14:40,42.805,6.029,CST-1368DR,4468,5092,12119,01.014,551
2022-12-03T11:17:42,42.805,6.029,CST-1368DR,4468,5087,12108,01.018,551
2022-12-03T11:20:44,42.805,6.029,CST-1368DR,4468,5088,12109,01.017,551
2022-12-03T11:23:45,42.805,6.029,CST-1368DR,4468,5088,12108,01.018,551
2022-12-03T11:26:47,42.805,6.029,CST-1368DR,4468,5090,12113,01.016,551
2022-12-03T11:29:48,42.805,6.029,CST-1368DR,4468,5102,12143,01.006,551
2022-12-03T11:32:50,42.805,6.029,CST-1368DR,4468,5095,12125,01.012,551
2022-12-03T11:35:51,42.805,6.029,CST-1368DR,4468,5088,12110,01.017,551
2022-12-03T11:38:53,42.805,6.029,CST-1368DR,4468,5087,12108,01.018,551
2022-12-03T11:41:55,42.805,6.029,CST-1368DR,4468,5086,12105,01.019,551
2022-12-03T11:44:56,42.805,6.029,CST-1368DR,4468,5086,12105,01.019,551
2022-12-03T11:47:58,42.805,6.029,CST-1368DR,4468,5094,12124,01.012,551
2022-12-03T11:50:59,42.805,6.029,CST-1368DR,4468,5085,12102,01.020,551
2022-12-03T11:54:01,42.805,6.029,CST-1368DR,4468,5086,12105,01.019,551
2022-12-03T11:57:02,42.805,6.029,CST-1368DR,4468,5085,12102,01.020,551
2022-12-03T12:00:04,42.805,6.029,CST-1368DR,4468,5086,12105,01.019,551
2022-12-03T12:03:06,42.805,6.029,CST-1368DR,4468,5088,12109,01.017,551
2022-12-03T12:06:07,42.805,6.029,CST-1368DR,4468,5086,12104,01.019,551
2022-12-03T12:09:09,42.805,6.029,CST-1368DR,4468,5087,12108,01.018,551
2022-12-03T12:12:10,42.805,6.029,CST-1368DR,4468,5086,12104,01.019,551
2022-12-03T12:15:12,42.805,6.029,CST-1368DR,4468,5085,12102,01.020,551
2022-12-03T12:18:13,42.805,6.029,CST-1368DR,4468,5086,12105,01.019,551
2022-12-03T12:21:15,42.805,6.029,CST-1368DR,4468,5086,12105,01.019,551
2022-12-03T12:24:17,42.805,6.029,CST-1368DR,4467,5086,12107,01.018,551
2022-12-03T12:27:18,42.805,6.029,CST-1368DR,4468,5087,12106,01.018,551
2022-12-03T12:30:20,42.805,6.029,CST-1368DR,4467,5089,12115,01.015,551
2022-12-03T12:33:21,42.805,6.029,CST-1368DR,4468,5092,12118,01.014,551
2022-12-03T12:36:23,42.805,6.029,CST-1368DR,4468,5087,12107,01.018,551
2022-12-03T12:39:25,42.805,6.029,CST-1368DR,4467,5086,12107,01.018,551
2022-12-03T12:42:26,42.805,6.029,CST-1368DR,4467,5087,12108,01.018,551
2022-12-03T12:45:28,42.805,6.029,CST-1368DR,4467,5086,12107,01.018,551
2022-12-03T12:48:29,42.805,6.029,CST-1368DR,4467,5085,12104,01.019,551
2022-12-03T12:51:31,42.805,6.029,CST-1368DR,4467,5085,12105,01.019,551
2022-12-03T12:54:32,42.805,6.029,CST-1368DR,4467,5085,12105,01.019,551
2022-12-03T12:57:34,42.805,6.029,CST-1368DR,4467,5085,12105,01.019,551
2022-12-03T13:00:36,42.805,6.029,CST-1368DR,4467,5085,12104,01.019,551
2022-12-03T13:03:37,42.805,6.029,CST-1368DR,4467,5087,12108,01.018,551
2022-12-03T13:06:39,42.805,6.029,CST-1368DR,4467,5086,12107,01.018,551
2022-12-03T13:09:40,42.805,6.029,CST-1368DR,4467,5086,12108,01.018,551
2022-12-03T13:12:42,42.805,6.029,CST-1368DR,4467,5087,12108,01.018,551
2022-12-03T13:15:43,42.805,6.029,CST-1368DR,4467,5086,12107,01.018,551
2022-12-03T13:18:45,42.805,6.029,CST-1368DR,4467,5085,12105,01.019,551
2022-12-03T13:21:47,42.805,6.029,CST-1368DR,4467,5085,12105,01.019,551
2022-12-03T13:24:48,42.805,6.029,CST-1368DR,4467,5084,12103,01.019,551
2022-12-03T13:27:50,42.805,6.029,CST-1368DR,4467,5085,12105,01.019,551
2022-12-03T13:30:51,42.805,6.029,CST-1368DR,4467,5083,12101,01.020,551
2022-12-03T13:33:53,42.805,6.029,CST-1368DR,4467,5085,12105,01.019,551
2022-12-03T13:36:54,42.805,6.029,CST-1368DR,4467,5087,12108,01.018,551
2022-12-03T13:39:56,42.805,6.029,CST-1368DR,4467,5083,12101,01.020,551
2022-12-03T13:42:58,42.805,6.029,CST-1368DR,4467,5083,12099,01.021,551
2022-12-03T13:45:59,42.805,6.029,CST-1368DR,4467,5084,12101,01.020,551
2022-12-03T13:49:01,42.805,6.029,CST-1368DR,4467,5080,12094,01.022,551
2022-12-03T13:52:02,42.805,6.029,CST-1368DR,4467,5097,12133,01.009,551
2022-12-03T13:55:04,42.805,6.029,CST-1368DR,4467,5092,12120,01.014,551
2022-12-03T13:58:06,42.805,6.029,CST-1368DR,4467,5084,12101,01.020,551
2022-12-03T14:01:07,42.805,6.029,CST-1368DR,4467,5085,12105,01.019,551
2022-12-03T14:04:09,42.805,6.029,CST-1368DR,4467,5084,12101,01.020,551
2022-12-03T14:07:10,42.805,6.029,CST-1368DR,4467,5083,12101,01.020,551
2022-12-03T14:10:12,42.805,6.029,CST-1368DR,4467,5085,12104,01.019,551
2022-12-03T14:13:13,42.805,6.029,CST-1368DR,4467,5089,12114,01.016,551
2022-12-03T14:16:15,42.805,6.029,CST-1368DR,4467,5082,12097,01.021,551
2022-12-03T14:19:17,42.805,6.029,CST-1368DR,4467,5084,12103,01.019,551
2022-12-03T14:22:18,42.805,6.029,CST-1368DR,4467,5084,12101,01.020,551
2022-12-03T14:25:20,42.805,6.029,CST-1368DR,4467,5083,12100,01.020,551
2022-12-03T14:28:21,42.805,6.029,CST-1368DR,4467,5084,12101,01.020,551
2022-12-03T14:31:23,42.805,6.029,CST-1368DR,4467,5081,12096,01.022,551
2022-12-03T14:34:24,42.805,6.029,CST-1368DR,4467,5084,12101,01.020,551
2022-12-03T14:37:26,42.805,6.029,CST-1368DR,4467,5089,12115,01.015,551
2022-12-03T14:40:28,42.805,6.029,CST-1368DR,4467,5084,12102,01.020,551
2022-12-03T14:43:29,42.805,6.029,CST-1368DR,4467,5088,12111,01.017,551
2022-12-03T14:46:31,42.805,6.029,CST-1368DR,4467,5083,12099,01.021,551
2022-12-03T14:49:32,42.805,6.029,CST-1368DR,4467,5084,12101,01.020,551
2022-12-03T14:52:34,42.805,6.029,CST-1368DR,4467,5085,12104,01.019,551
2022-12-03T14:55:36,42.805,6.029,CST-1368DR,4467,5094,12126,01.012,551
2022-12-03T14:58:37,42.805,6.029,CST-1368DR,4467,5083,12100,01.020,551
2022-12-03T15:01:39,42.805,6.029,CST-1368DR,4467,5090,12116,01.015,551
2022-12-03T15:04:40,42.805,6.029,CST-1368DR,4467,5083,12101,01.020,551
2022-12-03T15:07:42,42.805,6.029,CST-1368DR,4467,5083,12099,01.021,551
2022-12-03T15:10:43,42.805,6.029,CST-1368DR,4467,5085,12105,01.019,551
2022-12-03T15:13:45,42.805,6.029,CST-1368DR,4467,5086,12108,01.018,551
2022-12-03T15:16:47,42.805,6.029,CST-1368DR,4467,5084,12102,01.020,551
2022-12-03T15:19:48,42.805,6.029,CST-1368DR,4467,5083,12101,01.020,551
2022-12-03T15:22:50,42.805,6.029,CST-1368DR,4467,5083,12099,01.021,551
2022-12-03T15:25:51,42.805,6.029,CST-1368DR,4467,5084,12101,01.020,551
2022-12-03T15:28:53,42.805,6.029,CST-1368DR,4467,5086,12107,01.018,551
2022-12-03T15:31:54,42.805,6.029,CST-1368DR,4467,5084,12101,01.020,551
2022-12-03T15:34:56,42.805,6.029,CST-1368DR,4467,5091,12118,01.014,551
2022-12-03T15:37:58,42.805,6.029,CST-1368DR,4467,5085,12104,01.019,551
2022-12-03T15:40:59,42.805,6.029,CST-1368DR,4467,5082,12098,01.021,551
2022-12-03T15:44:01,42.805,6.029,CST-1368DR,4467,5083,12099,01.021,551
2022-12-03T15:47:02,42.805,6.029,CST-1368DR,4467,5084,12103,01.019,551
2022-12-03T15:50:04,42.805,6.029,CST-1368DR,4467,5084,12103,01.019,551
2022-12-03T15:53:05,42.805,6.029,CST-1368DR,4467,5084,12103,01.019,551
2022-12-03T15:56:07,42.805,6.029,CST-1368DR,4467,5083,12101,01.020,551
2022-12-03T15:59:09,42.805,6.029,CST-1368DR,4467,5083,12100,01.020,551
2022-12-03T16:02:10,42.805,6.029,CST-1368DR,4467,5087,12110,01.017,551
2022-12-03T16:05:12,42.805,6.029,CST-1368DR,4467,5085,12105,01.019,551
2022-12-03T16:08:13,42.805,6.029,CST-1368DR,4467,5084,12102,01.020,551
2022-12-03T16:11:15,42.805,6.029,CST-1368DR,4467,5082,12097,01.021,551
2022-12-03T16:14:17,42.805,6.029,CST-1368DR,4467,5087,12110,01.017,551
2022-12-03T16:17:18,42.805,6.029,CST-1368DR,4467,5084,12102,01.020,551
2022-12-03T16:20:20,42.805,6.029,CST-1368DR,4467,5082,12097,01.021,551
2022-12-03T16:23:21,42.805,6.029,CST-1368DR,4467,5083,12099,01.021,551
2022-12-03T16:26:23,42.805,6.029,CST-1368DR,4467,5083,12100,01.020,551
2022-12-03T16:29:24,42.805,6.029,CST-1368DR,4467,5083,12099,01.021,551
2022-12-03T16:32:26,42.805,6.029,CST-1368DR,4467,5083,12100,01.020,551
2022-12-03T16:35:28,42.805,6.029,CST-1368DR,4467,5084,12102,01.020,551
2022-12-03T16:38:29,42.805,6.029,CST-1368DR,4467,5084,12102,01.020,551